Observations for Trim Market St
| Time | AQI | Temp °C | Hum % | Pres Pa | CO μg/m³ | H₂S μg/m³ | NO μg/m³ | NO₂ μg/m³ | O₃ μg/m³ | SO₂ μg/m³ | PM1 μg/m³ | PM2.5 μg/m³ | PM10 μg/m³ |
|---|---|---|---|---|---|---|---|---|---|---|---|---|---|
| Tuesday 18 August 2026 | |||||||||||||
| 19:50 | 2 | 16.8 | 77 | 2,147,483,647 | 0.32 | 0 | 2.03 | 17.42 | 67.41 | 0 | 1.43 | 3.22 | 6.94 |
| 19:48 | 2 | 16.9 | 76 | 2,147,483,647 | 0.31 | 0.96 | 2.01 | 27.12 | 62.61 | 0 | 2.85 | 4.66 | 8.12 |
| 19:47 | 2 | 16.9 | 76 | 2,147,483,647 | 0.4 | 1.06 | 2.01 | 23.28 | 64.8 | 0 | 3.56 | 5.62 | 8.71 |
| 19:46 | 2 | 16.9 | 76 | 2,147,483,647 | 0.17 | 0 | 2.01 | 24.2 | 65.7 | 0 | 2.85 | 4.67 | 7.53 |
| 19:45 | 2 | 16.9 | 76 | 2,147,483,647 | 0.1 | 0 | 2.02 | 22 | 61.89 | 0 | 2.14 | 3.24 | 5.76 |
| 19:44 | 2 | 17 | 76 | 2,147,483,647 | 0.09 | 0 | 1.99 | 19.37 | 65.79 | 0 | 2.85 | 3.24 | 5.76 |
| 19:43 | 2 | 17 | 76 | 2,147,483,647 | 0.11 | 0 | 2 | 17.64 | 65.03 | 0 | 2.85 | 4.2 | 6.94 |
| 19:42 | 2 | 17 | 76 | 2,147,483,647 | 0.12 | 0.88 | 2 | 25.13 | 62.52 | 0 | 2.14 | 3.25 | 5.76 |
| 19:39 | 2 | 17.1 | 76 | 3,649 | 0.13 | 0 | 1.97 | 31.65 | 56.98 | 0 | 1.43 | 3.26 | 6.94 |
| 19:36 | 2 | 17.2 | 75 | 6,342 | 0.14 | 1.14 | 1.95 | 27.99 | 62.94 | 0 | 3.56 | 5.2 | 9.91 |
| 19:35 | 2 | 17.2 | 75 | 8,153 | 0.13 | 1.43 | 1.95 | 22.43 | 65.85 | 0 | 2.14 | 3.29 | 5.74 |
| 19:30 | 2 | 17.4 | 74 | 16,532 | 0.06 | 2.51 | 1.92 | 32.16 | 62.75 | 0 | 1.43 | 4.28 | 9.33 |
| 19:25 | 2 | 17.5 | 74 | 23,274 | 0.15 | 1.49 | 1.93 | 27.64 | 62.29 | 0 | 2.14 | 2.39 | 4.51 |
| 19:21 | 2 | 17.7 | 73 | 26,716 | 0.15 | 3.03 | 1.82 | 29.96 | 63.25 | 0 | 0 | 2.42 | 4.49 |
| 19:20 | 2 | 17.7 | 73 | 27,507 | 0.18 | 2.51 | 1.77 | 25.93 | 63.02 | 0 | 1.43 | 2.43 | 4.49 |
| 19:19 | 2 | 17.7 | 73 | 28,256 | 0.26 | 3.51 | 1.77 | 30.97 | 59.95 | 0 | 1.43 | 3.88 | 6.92 |
| 19:18 | 2 | 17.8 | 73 | 29,073 | 0.21 | 4.01 | 1.86 | 29.18 | 63.51 | 0 | 1.43 | 2.92 | 5.7 |
| 19:17 | 2 | 17.9 | 73 | 29,897 | 0.24 | 4.9 | 1.83 | 33.64 | 59.42 | 0 | 0.71 | 2.44 | 5.7 |
| 19:16 | 2 | 17.9 | 72 | 30,841 | 0.2 | 3.74 | 1.87 | 27.47 | 62.53 | 0 | 1.43 | 2.94 | 5.69 |
| 19:15 | 2 | 18 | 72 | 31,652 | 0.04 | 3.85 | 1.86 | 28 | 64.73 | 0 | 0.71 | 2.46 | 5.69 |